Location: Unspecified
(0.0000°N, 0.0000°E)
Time: 01:06:35
(UTC+00:00)

Amateur Radio Satellites - All Passes

Search period start: 19 April 2015 00:36
Search period end: 20 April 2015 00:36
Location: Unspecified, 0.0000°N, 0.0000°E

Satellite Date Start Highest point End Downlink Frequencies (MHz)
Time Altitude Azimuth
Cosmos 2504 19 Apr 00:45:03 00:51:52 38° 85° (E) 00:58:31 435.465 / 435.565
TISAT 1 19 Apr 00:52:27 00:55:22 18° 259° (W) 00:58:06 437.305
SPROUT 19 Apr 00:53:22 00:55:40 14° 260° (W) 00:57:42 437.525
BEESAT 19 Apr 00:58:25 01:02:58 44° 78° (ENE) 01:07:32 436.000
SWISSCUBE 19 Apr 00:59:27 01:04:07 51° 78° (ENE) 01:08:46 437.505
KKS-1 19 Apr 01:28:08 01:28:51 11° 80° (E) 01:29:56 437.445
RS-15 19 Apr 01:32:11 01:44:10 75° 69° (ENE) 01:56:27 29.354- 29.394
SRMSAT 19 Apr 01:42:41 01:48:36 69° 338° (NNW) 01:54:30 437.500
BEESAT 3 19 Apr 01:46:35 01:49:07 17° 113° (ESE) 01:51:50 437.485
JUGNU 19 Apr 01:50:08 01:55:05 27° 342° (NNW) 01:59:57 437.505
Gurwin Techsat 1B 19 Apr 01:59:50 02:05:04 63° 102° (ESE) 02:10:20 435.225
Oscar 19 19 Apr 02:00:03 02:04:11 23° 281° (W) 02:08:10 437.125/150
ITUPSAT 1 19 Apr 02:00:31 02:04:41 28° 259° (WSW) 02:08:45 437.325
ITAMSAT 1 19 Apr 02:16:06 02:21:14 66° 282° (WNW) 02:26:24 435.822/435.867
HORYU 2 19 Apr 02:22:21 02:24:31 14° 100° (E) 02:26:58 437.375
VERMONT LUNAR 19 Apr 02:34:32 02:36:09 13° 41° (NE) 02:37:53 437.305
STARS 19 Apr 02:38:16 02:42:36 64° 78° (ENE) 02:46:55 437.465
Cosmos 2504 19 Apr 02:39:35 02:45:06 21° 265° (W) 02:50:03 435.465 / 435.565
KKS-1 19 Apr 03:01:26 03:05:25 32° 259° (WSW) 03:09:18 437.445
AO-7 19 Apr 03:01:58 03:09:25 39° 105° (ESE) 03:17:04 29.400- 29.500
GONETS M04 19 Apr 03:14:24 03:20:23 22° 84° (E) 03:26:55
BEESAT 2 19 Apr 03:14:46 03:18:18 28° 293° (WNW) 03:21:48 435.950
PHONESAT 2.4 19 Apr 03:24:10 03:25:22 12° 40° (NE) 03:26:44 2401.200-2431.200
BEESAT 3 19 Apr 03:24:18 03:27:01 17° 294° (WNW) 03:29:36 437.485
AIST 2 19 Apr 03:26:41 03:30:51 85° 112° (ESE) 03:35:04 435.215
CUSAT 1 19 Apr 03:29:54 03:31:06 11° 82° (E) 03:33:19 437.405
SRMSAT 19 Apr 03:33:06 03:37:59 26° 343° (NNW) 03:42:49 437.500
JUGNU 19 Apr 03:42:10 03:44:46 13° 350° (N) 03:47:17 437.505
RS-15 19 Apr 03:48:57 03:57:05 19° 243° (WSW) 04:04:09 29.354- 29.394
JAS-2 19 Apr 03:54:54 04:00:44 80° 282° (WNW) 04:06:04 435.910
HORYU 2 19 Apr 03:57:19 04:01:03 26° 281° (W) 04:04:43 437.375
MOZHAYETS 4 19 Apr 04:08:00 04:12:33 57° 79° (E) 04:17:06
VERMONT LUNAR 19 Apr 04:10:41 04:13:38 30° 222° (SW) 04:16:34 437.305
DANDE 19 Apr 04:54:34 05:02:35 60° 85° (E) 05:11:01 436.750
AO-7 19 Apr 04:55:07 05:02:05 29° 284° (WNW) 05:08:47 29.400- 29.500
PHONESAT 2.4 19 Apr 05:00:17 05:03:37 40° 223° (SW) 05:06:55 2401.200-2431.200
CUSAT 1 19 Apr 05:05:49 05:14:02 88° 265° (W) 05:22:15 437.405
GONETS M04 19 Apr 05:08:47 05:17:10 47° 266° (W) 05:25:25
M-CUBED/EXP-1 PRIME 19 Apr 05:16:55 05:20:53 40° 74° (ENE) 05:25:10 437.505
CUBESAT XI-V 19 Apr 05:23:44 05:27:18 22° 80° (E) 05:30:59 437.345
SRMSAT 19 Apr 05:25:16 05:27:51 13° 351° (N) 05:30:21 437.500
Cosmos 2499 19 Apr 05:30:21 05:36:00 25° 84° (E) 05:41:47 435.465 / 435.565
STRAND 1 19 Apr 05:40:24 05:43:13 16° 79° (E) 05:46:20 437.568
CUTE-I 19 Apr 05:47:53 05:53:06 63° 102° (ESE) 05:58:25 437.470
Cubesat XI-IV 19 Apr 05:55:04 06:00:22 78° 102° (ESE) 06:05:44 437.490
PRISM 19 Apr 06:00:54 06:04:52 40° 78° (ENE) 06:08:50 437.425
AUBIESAT-1 19 Apr 06:06:24 06:10:28 45° 256° (WSW) 06:14:47 437.475
DANDE 19 Apr 06:40:06 06:45:57 19° 262° (W) 06:51:19 436.750
BRITE-PL 19 Apr 06:58:00 07:01:17 17° 101° (ESE) 07:04:58 437.365/2234.400
CUBESAT XI-V 19 Apr 07:01:21 07:04:37 18° 260° (W) 07:07:40 437.345
HO-68 19 Apr 07:10:48 07:14:31 16° 103° (ESE) 07:18:48 435.675
STRAND 1 19 Apr 07:17:46 07:22:19 31° 258° (WSW) 07:26:47 437.568
JUGNU 19 Apr 07:22:19 07:24:56 13° 10° (N) 07:27:39 437.505
Cosmos 2499 19 Apr 07:22:43 07:29:03 30° 266° (W) 07:34:57 435.465 / 435.565
CANX-2 19 Apr 07:23:15 07:23:15 10° 99° (E) 07:23:38 2200.000
GOMX 1 19 Apr 07:24:09 07:28:00 21° 101° (E) 07:32:10 467.674
CUTE 1.7 + AOD 2 19 Apr 07:31:53 07:33:36 13° 99° (E) 07:35:38 437.475
AAUSAT CUBESAT 2 19 Apr 08:00:49 08:03:22 17° 100° (E) 08:06:07 437.432
PCSat 19 Apr 08:09:57 08:15:20 73° 289° (WNW) 08:20:43 145.827
BRITE-PL 19 Apr 08:34:47 08:39:36 34° 280° (W) 08:44:35 437.365/2234.400
DOVE 4 19 Apr 08:35:59 08:41:14 83° 282° (WNW) 08:46:35 437.250
UWE-3 19 Apr 08:37:18 08:39:37 14° 100° (E) 08:42:13 435.000/436.395/437.385
CINEMA 3 19 Apr 08:39:22 08:44:10 48° 101° (E) 08:49:01 145.822/145.860
COMPASS 1 19 Apr 08:45:42 08:49:53 81° 280° (W) 08:54:03 437.405
HO-68 19 Apr 08:55:13 09:02:11 54° 284° (WNW) 09:09:06 435.675
CANX-2 19 Apr 08:55:20 08:59:06 30° 281° (W) 09:02:49 2200.000
SEEDS 19 Apr 08:59:33 09:03:29 37° 281° (W) 09:07:21 437.485
GOMX 1 19 Apr 09:01:29 09:05:58 27° 280° (W) 09:10:27 467.674
SRMSAT 19 Apr 09:05:29 09:08:22 14° 11° (N) 09:11:21 437.500
FUNcube-1 19 Apr 09:05:49 09:09:33 26° 100° (E) 09:13:21 145.935
CUTE 1.7 + AOD 2 19 Apr 09:05:55 09:09:26 25° 280° (W) 09:12:51 437.475
JUGNU 19 Apr 09:09:41 09:14:35 28° 18° (NNE) 09:19:33 437.505
UKube-1 19 Apr 09:23:51 09:27:15 23° 101° (ESE) 09:30:47 .
ZACube-1 19 Apr 09:27:22 09:31:50 53° 101° (E) 09:36:17 437.345
CUBEBUG 2 19 Apr 09:29:12 09:33:59 83° 281° (WNW) 09:38:43 437.445
YUBILEINY 19 Apr 09:30:08 09:36:13 22° 96° (E) 09:42:49 435.215
AAUSAT CUBESAT 2 19 Apr 09:35:57 09:38:53 18° 280° (W) 09:41:39 437.432
ANTELSAT 19 Apr 09:39:22 09:42:49 24° 79° (E) 09:46:24 437.575/2403.000
50 SAT 19 Apr 09:43:19 09:45:52 17° 100° (E) 09:48:35 437.505
Oscar 11 19 Apr 09:44:50 09:48:51 37° 281° (W) 09:52:49 145.826/435.025
DELFI C3 19 Apr 09:59:06 10:02:39 29° 281° (W) 10:06:08 145.870
BUGSAT 1 19 Apr 10:01:06 10:01:36 10° 81° (E) 10:02:26 437.445
DX 1 19 Apr 10:05:08 10:09:29 77° 283° (WNW) 10:13:53 434.975-435.025
QB50P2 19 Apr 10:05:38 10:08:54 23° 80° (E) 10:12:16 145.880/145.840
UWE-3 19 Apr 10:12:01 10:16:03 28° 281° (W) 10:19:58 435.000/436.395/437.385
HUMSAT D 19 Apr 10:23:20 10:27:35 59° 281° (W) 10:31:49 437.325/437.525
POPSAT HIP 1 19 Apr 10:28:05 10:32:08 47° 79° (E) 10:36:11 437.405
NANOSAT C BR1 19 Apr 10:28:21 10:32:24 48° 79° (E) 10:36:26 145.865
O/OREOS (USA 219) 19 Apr 10:29:17 10:33:32 44° 255° (WSW) 10:37:47 437.305
TIGRISAT 19 Apr 10:32:40 10:36:53 56° 259° (W) 10:41:09 435.000
UNISAT 6 19 Apr 10:33:29 10:37:42 53° 259° (W) 10:41:57 437.425
SO-50 19 Apr 10:37:20 10:40:50 24° 113° (ESE) 10:44:30 436.795
VELOX 1 19 Apr 10:42:34 10:46:58 66° 282° (WNW) 10:51:24 145.980
Cosmos 2491 19 Apr 10:43:01 10:51:52 87° 266° (W) 11:00:44 435.465 / 435.565
FUNcube-1 19 Apr 10:43:05 10:45:45 15° 280° (W) 10:48:09 145.935
SRMSAT 19 Apr 10:53:06 10:58:11 29° 18° (NNE) 11:03:20 437.500
POLYITAN 1 19 Apr 10:54:09 10:58:20 65° 259° (W) 11:02:29 437.675
AISAT 19 Apr 10:57:38 11:01:47 38° 281° (W) 11:05:56 437.250
JUGNU 19 Apr 10:57:53 11:03:45 75° 21° (NNE) 11:09:40 437.505
UKube-1 19 Apr 11:00:51 11:03:17 14° 280° (W) 11:05:27 .
DUCHIFAT 1 19 Apr 11:04:39 11:08:42 47° 259° (WSW) 11:12:42 145.980
CUBEBUG 1 19 Apr 11:09:53 11:14:14 71° 282° (WNW) 11:18:37 437.445
ESTCUBE 1 19 Apr 11:10:18 11:14:43 60° 282° (WNW) 11:19:09 437.505/2401.250
ANTELSAT 19 Apr 11:17:14 11:19:31 14° 260° (W) 11:21:33 437.575/2403.000
QB50P1 19 Apr 11:17:35 11:21:18 29° 259° (W) 11:24:55 145.935-145.965
50 SAT 19 Apr 11:17:59 11:20:35 16° 280° (W) 11:23:01 437.505
TISAT 1 19 Apr 11:22:31 11:25:43 22° 101° (E) 11:29:03 437.305
SPROUT 19 Apr 11:24:06 11:27:53 30° 101° (E) 11:31:45 437.525
YUBILEINY 19 Apr 11:24:35 11:32:58 46° 274° (W) 11:41:13 435.215
BUGSAT 1 19 Apr 11:33:29 11:37:00 27° 259° (W) 11:40:24 437.445
ISS 19 Apr 11:39:03 11:42:06 37° 306° (NW) 11:45:07 145.825
QB50P2 19 Apr 11:42:28 11:44:41 13° 260° (W) 11:46:39 145.880/145.840
SO-50 19 Apr 12:18:31 12:21:16 15° 295° (WNW) 12:23:50 436.795
AIST 1 19 Apr 12:37:43 12:41:58 77° 266° (W) 12:46:16
SRMSAT 19 Apr 12:41:33 12:47:32 77° 20° (NNE) 12:53:33 437.500
ITUPSAT 1 19 Apr 12:45:24 12:49:24 28° 101° (ESE) 12:53:32 437.325
JUGNU 19 Apr 12:47:20 12:52:50 40° 200° (SSW) 12:58:22 437.505
Oscar 19 19 Apr 12:53:48 12:58:47 55° 79° (ENE) 13:03:48 437.125/150
Cosmos 2504 19 Apr 12:54:12 13:02:17 54° 94° (E) 13:10:50 435.465 / 435.565
TISAT 1 19 Apr 12:58:51 13:01:23 15° 280° (W) 13:03:42 437.305
Gurwin Techsat 1B 19 Apr 13:02:25 13:03:45 11° 80° (E) 13:05:34 435.225
SPROUT 19 Apr 13:02:50 13:03:53 10° 279° (W) 13:04:34 437.525
ITAMSAT 1 19 Apr 13:13:22 13:17:04 21° 79° (E) 13:20:57 435.822/435.867
RS-15 19 Apr 13:15:51 13:26:47 63° 112° (ESE) 13:37:29 29.354- 29.394
BEESAT 19 Apr 13:20:17 13:25:03 88° 109° (ESE) 13:29:48 436.000
SWISSCUBE 19 Apr 13:21:32 13:26:15 80° 283° (WNW) 13:31:02 437.505
BEESAT 2 19 Apr 13:34:51 13:35:53 11° 65° (ENE) 13:37:12 435.950
KKS-1 19 Apr 13:38:53 13:41:36 17° 101° (E) 13:44:35 437.445
BEESAT 3 19 Apr 13:41:18 13:44:01 18° 66° (ENE) 13:46:52 437.485
VERMONT LUNAR 19 Apr 14:10:25 14:10:45 10° 140° (SE) 14:11:15 437.305
ITUPSAT 1 19 Apr 14:24:30 14:27:12 14° 280° (W) 14:29:36 437.325
SRMSAT 19 Apr 14:31:14 14:36:49 39° 200° (SSW) 14:42:24 437.500
HORYU 2 19 Apr 14:34:15 14:37:29 21° 79° (E) 14:40:53 437.375
JUGNU 19 Apr 14:38:25 14:42:20 18° 193° (SSW) 14:46:10 437.505
Gurwin Techsat 1B 19 Apr 14:38:37 14:43:41 44° 258° (WSW) 14:48:42 435.225
STARS 19 Apr 14:49:28 14:53:55 87° 283° (WNW) 14:58:23 437.465
Cosmos 2504 19 Apr 14:49:58 14:55:45 19° 277° (W) 15:01:02 435.465 / 435.565
ITAMSAT 1 19 Apr 14:52:12 14:56:27 25° 258° (WSW) 15:00:33 435.822/435.867
PHONESAT 2.4 19 Apr 15:04:55 15:05:12 10° 140° (SE) 15:05:41 2401.200-2431.200
BEESAT 2 19 Apr 15:10:35 15:13:55 25° 247° (WSW) 15:17:09 435.950
KKS-1 19 Apr 15:14:37 15:18:08 22° 281° (W) 15:21:32 437.445
BEESAT 3 19 Apr 15:19:31 15:21:55 15° 246° (WSW) 15:24:08 437.485
JAS-2 19 Apr 15:24:49 15:31:49 57° 77° (ENE) 15:39:24 435.910
AIST 2 19 Apr 15:25:49 15:29:55 75° 248° (WSW) 15:33:58 435.215
AO-7 19 Apr 15:27:49 15:35:59 63° 75° (ENE) 15:44:09 29.400- 29.500
RS-15 19 Apr 15:31:25 15:39:11 20° 295° (WNW) 15:46:04 29.354- 29.394
VERMONT LUNAR 19 Apr 15:45:02 15:48:17 43° 317° (NW) 15:51:30 437.305
GONETS M04 19 Apr 15:46:08 15:54:10 44° 94° (E) 16:02:22
HORYU 2 19 Apr 16:11:01 16:14:01 17° 259° (W) 16:16:49 437.375
SRMSAT 19 Apr 16:22:35 16:26:30 17° 193° (SSW) 16:30:19 437.500
MOZHAYETS 4 19 Apr 16:24:53 16:29:27 84° 283° (WNW) 16:34:01
JUGNU 19 Apr 16:31:15 16:32:19 10° 184° (S) 16:33:20 437.505
PHONESAT 2.4 19 Apr 16:40:00 16:43:29 50° 317° (NW) 16:46:57 2401.200-2431.200
CUTE-I 19 Apr 16:51:06 16:52:41 12° 80° (E) 16:54:43 437.470
Cubesat XI-IV 19 Apr 16:57:21 17:00:08 15° 79° (E) 17:03:15 437.490
JAS-2 19 Apr 17:12:24 17:16:56 17° 261° (W) 17:21:05 435.910
M-CUBED/EXP-1 PRIME 19 Apr 17:20:34 17:24:07 37° 104° (ESE) 17:27:29 437.505
AO-7 19 Apr 17:23:40 17:28:42 16° 256° (WSW) 17:33:03 29.400- 29.500
Cosmos 2499 19 Apr 17:37:24 17:45:00 38° 94° (E) 17:53:05 435.465 / 435.565
CUBESAT XI-V 19 Apr 17:41:31 17:45:45 38° 101° (E) 17:50:06 437.345
GONETS M04 19 Apr 17:44:16 17:50:56 23° 276° (W) 17:57:08
DANDE 19 Apr 17:48:45 17:50:44 18° 275° (W) 17:52:36 436.750
PRISM 19 Apr 18:04:45 18:08:38 45° 102° (ESE) 18:12:35 437.425
AUBIESAT-1 19 Apr 18:09:36 18:13:10 37° 286° (WNW) 18:16:29 437.475
STRAND 1 19 Apr 18:11:13 18:15:53 38° 102° (ESE) 18:20:40 437.568
SRMSAT 19 Apr 18:15:39 18:16:40 10° 184° (S) 18:17:38 437.500
JUGNU 19 Apr 18:20:51 18:22:31 11° 174° (S) 18:24:15 437.505
CUTE-I 19 Apr 18:27:37 18:32:42 44° 258° (WSW) 18:37:44 437.470
Cubesat XI-IV 19 Apr 18:35:15 18:40:09 35° 258° (WSW) 18:44:57 437.490
HO-68 19 Apr 19:03:34 19:06:05 13° 78° (ENE) 19:09:16 435.675
PCSat 19 Apr 19:04:13 19:08:19 23° 69° (ENE) 19:12:36 145.827
BRITE-PL 19 Apr 19:25:05 19:28:50 28° 81° (E) 19:32:28 437.365/2234.400
CANX-2 19 Apr 19:28:21 19:30:11 13° 80° (E) 19:32:18 2200.000
Cosmos 2499 19 Apr 19:30:56 19:38:05 28° 276° (W) 19:45:04 435.465 / 435.565
CUTE 1.7 + AOD 2 19 Apr 19:37:55 19:40:27 16° 80° (E) 19:43:12 437.475
GOMX 1 19 Apr 19:48:28 19:52:16 32° 80° (E) 19:56:01 467.674
STRAND 1 19 Apr 19:52:53 19:55:02 12° 280° (W) 19:56:47 437.568
AAUSAT CUBESAT 2 19 Apr 20:05:00 20:07:57 19° 80° (E) 20:11:04 437.432
SRMSAT 19 Apr 20:05:16 20:07:01 11° 174° (S) 20:08:50 437.500
JUGNU 19 Apr 20:08:09 20:12:26 20° 165° (SSE) 20:16:47 437.505
Oscar 11 19 Apr 20:20:17 20:21:43 12° 80° (E) 20:23:28 145.826/435.025
HO-68 19 Apr 20:46:40 20:53:46 64° 256° (WSW) 21:00:50 435.675
PCSat 19 Apr 20:47:20 20:51:37 23° 249° (WSW) 20:55:45 145.827
UWE-3 19 Apr 20:48:26 20:51:07 17° 80° (E) 20:54:00 435.000/436.395/437.385
COMPASS 1 19 Apr 20:50:44 20:54:55 68° 259° (W) 20:59:06 437.405
CINEMA 3 19 Apr 20:56:42 21:00:50 76° 79° (E) 21:04:59 145.822/145.860
DOVE 4 19 Apr 20:58:35 21:02:30 37° 259° (W) 21:06:19 437.250
CANX-2 19 Apr 21:02:30 21:06:01 24° 260° (W) 21:09:26 2200.000
O/OREOS (USA 219) 19 Apr 21:03:09 21:05:17 14° 107° (ESE) 21:07:42 437.305
SEEDS 19 Apr 21:05:38 21:09:25 31° 259° (W) 21:13:08 437.485
BRITE-PL 19 Apr 21:05:56 21:07:14 11° 259° (W) 21:08:10 437.365/2234.400
CUTE 1.7 + AOD 2 19 Apr 21:13:04 21:16:15 20° 260° (W) 21:19:18 437.475
UNISAT 6 19 Apr 21:13:57 21:14:51 11° 99° (E) 21:16:09 437.425
FUNcube-1 19 Apr 21:15:48 21:19:29 32° 79° (E) 21:23:16 145.935
Cosmos 2491 19 Apr 21:22:56 21:28:57 22° 96° (E) 21:35:28 435.465 / 435.565
UKube-1 19 Apr 21:32:38 21:36:27 31° 79° (E) 21:40:18 .
AISAT 19 Apr 21:35:50 21:37:52 14° 80° (E) 21:40:11 437.250
ZACube-1 19 Apr 21:37:51 21:41:59 74° 79° (E) 21:46:11 437.345
AAUSAT CUBESAT 2 19 Apr 21:40:49 21:43:29 16° 260° (W) 21:45:55 437.432
50 SAT 19 Apr 21:42:09 21:44:27 16° 80° (E) 21:46:57 437.505
CUBEBUG 2 19 Apr 21:42:37 21:46:40 51° 259° (W) 21:50:44 437.445
QB50P1 19 Apr 21:50:14 21:52:09 13° 100° (E) 21:54:23 145.935-145.965
ANTELSAT 19 Apr 21:52:25 21:56:45 39° 101° (E) 22:01:03 437.575/2403.000
SRMSAT 19 Apr 21:52:45 21:57:05 21° 165° (SSE) 22:01:28 437.500
Oscar 11 19 Apr 21:54:04 21:57:48 27° 259° (W) 22:01:27 145.826/435.025
JUGNU 19 Apr 21:56:05 22:01:51 48° 160° (SSE) 22:07:36 437.505
DELFI C3 19 Apr 22:00:02 22:03:37 29° 259° (W) 22:07:09 145.870
YUBILEINY 19 Apr 22:01:52 22:09:55 44° 86° (E) 22:18:06 435.215
BUGSAT 1 19 Apr 22:03:29 22:05:09 12° 100° (E) 22:07:06 437.445
QB50P2 19 Apr 22:12:04 22:15:45 29° 101° (E) 22:19:32 145.880/145.840
DX 1 19 Apr 22:15:15 22:19:31 54° 258° (WSW) 22:23:45 434.975-435.025
UWE-3 19 Apr 22:24:46 22:27:34 17° 260° (W) 22:30:12 435.000/436.395/437.385
HUMSAT D 19 Apr 22:29:13 22:33:11 47° 259° (WSW) 22:37:10 437.325/437.525
POPSAT HIP 1 19 Apr 22:34:35 22:38:49 61° 101° (ESE) 22:43:05 437.405
NANOSAT C BR1 19 Apr 22:34:36 22:38:49 61° 101° (ESE) 22:43:04 145.865
O/OREOS (USA 219) 19 Apr 22:40:43 22:44:37 26° 286° (WNW) 22:48:24 437.305
TIGRISAT 19 Apr 22:46:09 22:50:29 38° 281° (WNW) 22:54:43 435.000
UNISAT 6 19 Apr 22:47:18 22:51:35 35° 281° (W) 22:55:44 437.425
SO-50 19 Apr 22:49:31 22:54:10 48° 67° (ENE) 22:58:44 436.795
VELOX 1 19 Apr 22:55:04 22:59:17 43° 258° (WSW) 23:03:28 145.980
POLYITAN 1 19 Apr 23:01:06 23:05:18 51° 281° (W) 23:09:30 437.675
AISAT 19 Apr 23:10:39 23:14:22 25° 259° (W) 23:17:57 437.250
DUCHIFAT 1 19 Apr 23:10:57 23:14:57 38° 281° (W) 23:18:56 145.980
UKube-1 19 Apr 23:11:41 23:12:30 10° 260° (W) 23:12:56 .
ISS 19 Apr 23:11:56 23:15:08 69° 235° (SW) 23:18:20 145.825
50 SAT 19 Apr 23:16:35 23:19:11 16° 260° (W) 23:21:37 437.505
Cosmos 2491 19 Apr 23:17:30 23:25:44 45° 274° (W) 23:33:49 435.465 / 435.565
CUBEBUG 1 19 Apr 23:20:39 23:24:55 49° 259° (W) 23:29:06 437.445
QB50P1 19 Apr 23:24:23 23:27:55 24° 281° (W) 23:31:23 145.935-145.965
ESTCUBE 1 19 Apr 23:25:02 23:29:16 37° 259° (WSW) 23:33:26 437.505/2401.250
TISAT 1 19 Apr 23:28:29 23:31:56 26° 79° (E) 23:35:26 437.305
SPROUT 19 Apr 23:32:15 23:36:15 40° 79° (E) 23:40:15 437.525
BUGSAT 1 19 Apr 23:37:02 23:40:30 25° 280° (W) 23:43:55 437.445
SRMSAT 19 Apr 23:40:51 23:46:37 50° 160° (SSE) 23:52:21 437.500
JUGNU 19 Apr 23:45:02 23:50:57 63° 339° (NNW) 23:56:49 437.505
QB50P2 19 Apr 23:50:10 23:51:33 11° 280° (W) 23:52:37 145.880/145.840
YUBILEINY 20 Apr 00:00:03 00:06:39 23° 264° (W) 00:12:46 435.215
